{"data":{"norad_id":68669,"epoch":"2026-05-25T03:25:06.198240Z","epoch_age_seconds":72956,"freshness":"FRESH","line1":"1 68669U 26077H   26145.14243285  .00016477  00000+0  51142-3 0  9994","line2":"2 68669  97.2852  16.7031 0001131  95.0194 265.1178 15.33455153  6878","mean_motion":15.33455153,"eccentricity":0.0001131,"inclination_deg":97.2852,"raan_deg":16.7031,"arg_perigee_deg":95.0194,"mean_anomaly_deg":265.1178,"bstar":0.00051142,"rev_number":687,"period_min":93.905582904256,"perigee_km":464.73894964884,"apogee_km":466.28698327125,"semimajor_km":6843.64996646,"source":"CELESTRAK","updated_at":"2026-05-25T13:38:21.992823Z"}}